Weather History for Fort Bragg, NC

Change the Weather History Date:

Tuesday, February 11, 2014

  Actual Average Record
Temperature  
Mean Temperature 30 °F -  
Max Temperature 35 °F 55 °F 74 °F (2009)
Min Temperature 26 °F 35 °F 22 °F (2011)
Degree Days  
Heating Degree Days 34    
Moisture  
Dew Point 29 °F    
Average Humidity 89    
Maximum Humidity 100    
Minimum Humidity 69    
Precipitation  
Precipitation 0.06 in - - ()
Snow  
Snow 0.00 in - - ()
Snow Depth 2.00 in    
Sea Level Pressure  
Sea Level Pressure 30.29 in    
Wind  
Wind Speed 6 mph (NE)    
Max Wind Speed 13 mph    
Max Gust Speed -    
Visibility 6 miles    
Events Snow    
Averages and records for this station are not official NWS values.
T = Trace of Precipitation, MM = Missing Value Source: NWS Daily Summary

Daily Weather History Graph

Daily Weather History Graph

Search for Another Location

Airport:

Trip Planner

Search our weather history database for the weather conditions in past years. The results will help you decide how hot, cold, wet, or windy it might be!

Date:

Astronomy

Feb. 11, 2014 Rise Set
Actual Time 7:06 AM EST 5:54 PM EST
Civil Twilight 6:39 AM EST 6:20 PM EST
Nautical Twilight 6:10 AM EST 6:50 PM EST
Astronomical Twilight 5:40 AM EST 7:19 PM EST
Moon 3:16 PM EST (2/11) 4:38 AM EST (2/11)
Length of Visible Light 11h 40m
Length of Day
10h 48m
Waxing Gibbous, 90% of the Moon is Illuminated
Feb 11
Waxing Gibbous
Feb 14
Full
Feb 22
Last Quarter
Mar 1
New
Mar 8
First Quarter

Hourly Weather History & Observations

Time (EST) Temp. Windchill Dew Point Humidity Pressure Visibility Wind Dir Wind Speed Gust Speed Precip Events Conditions
12:01 AM 35.6 °F 32.8 °F 33.8 °F 93% 30.24 in 10.0 mi NNE 3.5 mph - N/A   Mostly Cloudy
12:07 AM 35.6 °F 32.8 °F 33.8 °F 93% 30.24 in 10.0 mi NNE 3.5 mph - N/A   Mostly Cloudy
12:09 AM 35.6 °F 31.7 °F 33.8 °F 93% 30.24 in 10.0 mi NNE 4.6 mph - N/A   Mostly Cloudy
12:13 AM 35.6 °F 31.7 °F 33.8 °F 93% 30.23 in 9.0 mi NNE 4.6 mph - N/A   Mostly Cloudy
12:15 AM 35.6 °F 32.8 °F 33.8 °F 93% 30.23 in 9.0 mi NNE 3.5 mph - N/A   Overcast
12:26 AM 35.6 °F 32.8 °F 35.6 °F 100% 30.24 in 6.0 mi North 3.5 mph - N/A   Overcast
12:30 AM 35.6 °F 32.8 °F 35.6 °F 100% 30.24 in 6.0 mi North 3.5 mph - N/A   Overcast
12:38 AM 35.6 °F 31.7 °F 33.8 °F 93% 30.23 in 7.0 mi North 4.6 mph - N/A   Overcast
12:40 AM 35.6 °F 31.7 °F 33.8 °F 93% 30.23 in 7.0 mi North 4.6 mph - N/A   Overcast
12:44 AM 35.6 °F 31.7 °F 33.8 °F 93% 30.23 in 7.0 mi North 4.6 mph - N/A   Overcast
12:48 AM 35.6 °F 31.7 °F 33.8 °F 93% 30.23 in 7.0 mi NNE 4.6 mph - N/A   Overcast
12:50 AM 35.6 °F 32.8 °F 33.8 °F 93% 30.23 in 7.0 mi North 3.5 mph - N/A   Overcast
12:57 AM 35.6 °F 31.7 °F 33.8 °F 93% 30.23 in 7.0 mi NNE 4.6 mph - N/A   Overcast
12:58 AM 35.6 °F 32.8 °F 34.5 °F 96% 30.25 in 7.0 mi NNE 3.5 mph - 0.00 in   Overcast
1:10 AM 35.6 °F 30.7 °F 33.8 °F 93% 30.23 in 7.0 mi NE 5.8 mph - N/A   Overcast
1:12 AM 35.6 °F 31.7 °F 33.8 °F 93% 30.23 in 7.0 mi NE 4.6 mph - N/A   Overcast
1:21 AM 35.6 °F 31.7 °F 33.8 °F 93% 30.23 in 7.0 mi NE 4.6 mph - N/A   Mostly Cloudy
1:41 AM 35.6 °F 31.7 °F 33.8 °F 93% 30.23 in 8.0 mi NE 4.6 mph - N/A   Overcast
1:49 AM 35.6 °F 31.7 °F 33.8 °F 93% 30.23 in 9.0 mi NE 4.6 mph - N/A   Mostly Cloudy
1:55 AM 35.6 °F 32.8 °F 33.8 °F 93% 30.23 in 10.0 mi NNE 3.5 mph - N/A   Mostly Cloudy
1:57 AM 35.6 °F 31.7 °F 33.8 °F 93% 30.23 in 10.0 mi NE 4.6 mph - N/A   Mostly Cloudy
1:58 AM 35.4 °F 31.5 °F 34.2 °F 95% 30.25 in 10.0 mi NE 4.6 mph - 0.00 in   Mostly Cloudy
2:26 AM 35.6 °F 32.8 °F 33.8 °F 93% 30.22 in 7.0 mi NE 3.5 mph - N/A   Overcast
2:50 AM 35.6 °F 31.7 °F 33.8 °F 93% 30.22 in 9.0 mi NE 4.6 mph - N/A   Overcast
2:56 AM 35.6 °F 31.7 °F 33.8 °F 93% 30.22 in 9.0 mi NE 4.6 mph - N/A   Overcast
2:58 AM 35.4 °F 31.5 °F 34.2 °F 95% 30.24 in 9.0 mi NE 4.6 mph - N/A   Overcast
3:20 AM 35.6 °F 30.7 °F 33.8 °F 93% 30.22 in 10.0 mi NNE 5.8 mph - N/A   Overcast
3:22 AM 35.6 °F 31.7 °F 33.8 °F 93% 30.22 in 9.0 mi NNE 4.6 mph - N/A   Overcast
3:36 AM 35.6 °F 30.7 °F 33.8 °F 93% 30.22 in 9.0 mi NE 5.8 mph - N/A   Overcast
3:58 AM 35.4 °F 29.7 °F 33.8 °F 94% 30.24 in 10.0 mi NE 6.9 mph - N/A   Mostly Cloudy
4:00 AM 35.6 °F 29.9 °F 32.0 °F 87% 30.22 in 10.0 mi NE 6.9 mph - N/A   Mostly Cloudy
4:02 AM 35.6 °F 29.2 °F 32.0 °F 87% 30.22 in 10.0 mi NE 8.1 mph - N/A   Mostly Cloudy
4:04 AM 35.6 °F 29.9 °F 32.0 °F 87% 30.22 in 10.0 mi NE 6.9 mph - N/A   Overcast
4:58 AM 35.1 °F 31.0 °F 33.1 °F 92% 30.26 in 10.0 mi ENE 4.6 mph - N/A   Mostly Cloudy
5:30 AM 35.6 °F 31.7 °F 32.0 °F 87% 30.25 in 10.0 mi NE 4.6 mph - N/A   Mostly Cloudy
5:34 AM 35.6 °F 32.8 °F 32.0 °F 87% 30.25 in 10.0 mi NNE 3.5 mph - N/A   Mostly Cloudy
5:58 AM 34.9 °F 28.3 °F 32.9 °F 92% 30.26 in 10.0 mi NE 8.1 mph - N/A   Mostly Cloudy
6:00 AM 35.6 °F 29.9 °F 32.0 °F 87% 30.25 in 10.0 mi ENE 6.9 mph - N/A   Mostly Cloudy
6:14 AM 35.6 °F 29.9 °F 32.0 °F 87% 30.26 in 10.0 mi Variable 6.9 mph - N/A   Mostly Cloudy
6:54 AM 33.8 °F 25.3 °F 30.2 °F 87% 30.27 in 10.0 mi NE 11.5 mph - N/A   Mostly Cloudy
6:56 AM 33.8 °F 25.3 °F 30.2 °F 87% 30.28 in 10.0 mi ENE 11.5 mph - N/A   Mostly Cloudy
6:58 AM 34.3 °F 25.5 °F 29.7 °F 83% 30.30 in 10.0 mi ENE 12.7 mph - N/A   Mostly Cloudy
7:10 AM 32.0 °F 23.6 °F 28.4 °F 87% 30.28 in 10.0 mi ENE 10.4 mph - N/A   Mostly Cloudy
7:14 AM 32.0 °F 23.0 °F 28.4 °F 87% 30.28 in 10.0 mi ENE 11.5 mph - N/A   Mostly Cloudy
7:18 AM 32.0 °F 24.8 °F 28.4 °F 87% 30.28 in 10.0 mi ENE 8.1 mph - N/A   Mostly Cloudy
7:22 AM 32.0 °F 24.8 °F 28.4 °F 87% 30.28 in 10.0 mi ENE 8.1 mph - N/A   Overcast
7:44 AM 32.0 °F 24.2 °F 28.4 °F 87% 30.29 in 10.0 mi NE 9.2 mph - N/A   Overcast
7:58 AM 33.1 °F 27.7 °F 28.4 °F 83% 30.32 in 10.0 mi NE 5.8 mph - N/A   Mostly Cloudy
8:12 AM 32.0 °F 24.8 °F 28.4 °F 87% 30.31 in 10.0 mi NE 8.1 mph - N/A   Scattered Clouds
8:56 AM 32.0 °F 23.6 °F 23.0 °F 69% 30.32 in 10.0 mi NE 10.4 mph - N/A   Clear
8:58 AM 32.4 °F 24.0 °F 23.4 °F 69% 30.34 in 10.0 mi NE 10.4 mph - N/A   Clear
9:18 AM 32.0 °F 22.5 °F 24.8 °F 75% 30.32 in 4.0 mi ENE 12.7 mph - N/A Snow Light Snow
9:25 AM 32.0 °F 24.2 °F 24.8 °F 75% 30.32 in 1.0 mi NE 9.2 mph - N/A Snow Light Snow
9:36 AM 32.0 °F 23.6 °F 26.6 °F 80% 30.32 in 1.8 mi ENE 10.4 mph - N/A Snow Light Snow
9:41 AM 32.0 °F 24.8 °F 26.6 °F 80% 30.32 in 0.5 mi ENE 8.1 mph - N/A Snow Light Snow
9:58 AM 30.2 °F 23.4 °F 27.3 °F 89% 30.34 in 0.8 mi ENE 6.9 mph - 0.00 in Snow Light Snow
10:20 AM 30.2 °F 24.3 °F 28.4 °F 93% 30.32 in 2.0 mi NE 5.8 mph - N/A Snow Light Snow
10:24 AM 30.2 °F 24.3 °F 28.4 °F 93% 30.33 in 2.5 mi NE 5.8 mph - N/A Snow Light Snow
10:28 AM 32.0 °F 26.4 °F 28.4 °F 87% 30.32 in 3.0 mi ENE 5.8 mph - N/A Snow Light Snow
10:36 AM 32.0 °F 24.8 °F 28.4 °F 87% 30.33 in 3.0 mi NE 8.1 mph - N/A Snow Light Snow
10:44 AM 32.0 °F 24.8 °F 26.6 °F 80% 30.33 in 4.0 mi NE 8.1 mph - N/A Snow Light Snow
10:58 AM 30.4 °F 22.9 °F 27.1 °F 88% 30.35 in 3.0 mi ENE 8.1 mph - 0.01 in Snow Light Snow
11:08 AM 32.0 °F 25.6 °F 26.6 °F 80% 30.33 in 3.0 mi ENE 6.9 mph - N/A Snow Light Snow
11:30 AM 32.0 °F 26.4 °F 26.6 °F 80% 30.33 in 2.5 mi ENE 5.8 mph - N/A Snow Light Snow
11:34 AM 32.0 °F 26.4 °F 28.4 °F 87% 30.33 in 2.0 mi ENE 5.8 mph - N/A Snow Light Snow
11:38 AM 32.0 °F 25.6 °F 28.4 °F 87% 30.33 in 1.8 mi NE 6.9 mph - N/A Snow Light Snow
11:42 AM 32.0 °F 25.6 °F 28.4 °F 87% 30.33 in 1.2 mi ENE 6.9 mph - N/A Snow Light Snow
11:44 AM 32.0 °F 25.6 °F 28.4 °F 87% 30.33 in 1.0 mi NE 6.9 mph - N/A Snow Light Snow
11:46 AM 32.0 °F 26.4 °F 28.4 °F 87% 30.33 in 1.0 mi NE 5.8 mph - N/A Snow Light Snow
11:48 AM 32.0 °F 25.6 °F 28.4 °F 87% 30.33 in 0.8 mi NE 6.9 mph - N/A Snow Light Snow
11:50 AM 32.0 °F 24.8 °F 28.4 °F 87% 30.34 in 0.4 mi NNE 8.1 mph - N/A Snow Snow
12:00 PM 30.4 °F 21.5 °F 27.9 °F 90% 30.34 in 0.5 mi NNE 10.4 mph - 0.01 in Snow Snow
12:43 PM 30.2 °F 21.9 °F 26.6 °F 86% 30.32 in 0.5 mi NNE 9.2 mph - N/A Snow Light Snow
12:48 PM 28.4 °F 20.4 °F 26.6 °F 93% 30.32 in 1.2 mi NE 8.1 mph - N/A Snow Light Snow
12:50 PM 28.4 °F 19.7 °F 26.6 °F 93% 30.33 in 1.2 mi NE 9.2 mph - N/A Snow Light Snow
12:58 PM 28.9 °F 20.4 °F 26.2 °F 90% 30.35 in 0.5 mi NNE 9.2 mph - 0.00 in Snow Light Snow
1:02 PM 28.4 °F 20.4 °F 26.6 °F 93% 30.33 in 0.5 mi NNE 8.1 mph - N/A Snow Light Snow
1:32 PM 26.6 °F 18.2 °F 24.8 °F 93% 30.33 in 0.2 mi NE 8.1 mph - N/A Snow Light Snow
1:58 PM 27.3 °F 18.4 °F 24.8 °F 90% 30.33 in 0.2 mi NNE 9.2 mph - 0.00 in Snow Snow
2:15 PM 26.6 °F 17.5 °F 24.8 °F 93% 30.34 in 0.5 mi NE 9.2 mph - N/A Snow Light Snow
2:31 PM 26.6 °F 17.5 °F 23.0 °F 86% 30.34 in 0.8 mi NE 9.2 mph - N/A Snow Light Snow
2:55 PM 26.6 °F 18.2 °F 23.0 °F 86% 30.33 in 0.8 mi NE 8.1 mph - 0.01 in Snow Light Snow
3:55 PM 27.0 °F 19.5 °F 24.1 °F 89% 30.34 in 0.8 mi NNE 6.9 mph - 0.01 in Snow Light Snow
4:55 PM 26.2 °F 17.1 °F 22.6 °F 86% 30.35 in 1.0 mi NE 9.2 mph - 0.01 in Snow Light Snow
5:34 PM 26.6 °F 20.0 °F 23.0 °F 86% 30.34 in 4.0 mi NE 5.8 mph - N/A   Overcast
5:58 PM 26.8 °F 22.8 °F 23.5 °F 88% 30.33 in 10.0 mi ENE 3.5 mph - 0.01 in   Overcast
6:58 PM 27.1 °F 21.8 °F 23.4 °F 86% 30.36 in 10.0 mi NE 4.6 mph - N/A   Mostly Cloudy
7:58 PM 27.5 °F - 23.7 °F 86% 30.39 in 10.0 mi Calm Calm - N/A   Partly Cloudy
8:58 PM 27.7 °F - 23.7 °F 85% 30.40 in 10.0 mi North 1.2 mph - N/A   Mostly Cloudy
9:58 PM 28.0 °F - 24.3 °F 86% 30.40 in 10.0 mi North 1.2 mph - N/A   Overcast
10:58 PM 28.8 °F 23.7 °F 23.4 °F 80% 30.40 in 10.0 mi NNE 4.6 mph - N/A   Overcast
11:58 PM 29.1 °F 24.1 °F 22.6 °F 77% 30.39 in 10.0 mi NE 4.6 mph - N/A   Overcast